Voltar ao catálogo

NOAA 16 DEB

AtivoSSO
NORAD 41410·DEBRIS·🇺🇸 United States

Lançado Sep 21, 2000 de Vandenberg Space Force Base

Loading…

Próximas Passagens (próximas 24 horas)

TLE

AtualizadoSource: Space-Track

Época: Sep 12, 2026, 08:08 UTC

1 41410U 00055KP  26255.33942393  .00001638  00000-0  77490-3 0  9994
2 41410  98.6957 295.4174 0019575 314.3325  45.6247 14.20957849544231

Acompanhe NOAA 16 DEB em tempo real com AllMySat

Download on the App Store